This demonstration page uses our WeatherBlox Daily Observations layout. Learn more.

38.89511, -77.03637

Hourly Observations for September 11, 2017

Temp ( °F °C ) Dew Point ( °F °C ) Humidity (%) Winds ( mph kmh ) Pressure ( in mb ) Visibility ( mi km ) Precip ( " mm )
12:52 am 00:52 Mostly Cloudy 61 16.1 55 12.8 81 81 N 3 6 30.33 1027 10 16.09344 0 0
1:52 am 01:52 Mostly Cloudy 58 14.4 53 11.7 84 84 N 7 11 30.33 1027 10 16.09344 0 0
2:52 am 02:52 Mostly Cloudy 59 15 53 11.7 81 81 N 5 7 30.33 1027 10 16.09344 0 0
3:52 am 03:52 Mostly Cloudy 58 14.4 52 11.1 81 81 NNE 3 6 30.33 1027 10 16.09344 0 0
4:52 am 04:52 Mostly Cloudy 58 14.4 53 11.7 84 84 NE 5 7 30.33 1027 10 16.09344 0 0
5:52 am 05:52 Mostly Cloudy 58 14.4 51 10.6 78 78 NNE 7 11 30.33 1027 10 16.09344 0 0
6:52 am 06:52 Mostly Cloudy 58 14.4 50 10 75 75 NNE 7 11 30.36 1028 10 16.09344 0 0
7:52 am 07:52 Mostly Cloudy 59 15 51 10.6 75 75 NNE 9 15 30.33 1027 10 16.09344 0 0
8:52 am 08:52 Mostly Cloudy 62 16.7 53 11.7 73 73 ENE 8 13 30.33 1027 10 16.09344 0 0
9:52 am 09:52 Mostly Cloudy 65 18.3 54 12.2 68 68 NE 7 11 30.3 1026 10 16.09344 0 0
10:52 am 10:52 Mostly Cloudy 69 20.6 54 12.2 59 59 NNE 5 7 30.3 1026 10 16.09344 0 0
11:52 am 11:52 Mostly Cloudy 73 22.8 52 11.1 48 48 NE 9 15 30.3 1026 10 16.09344 0 0
12:52 pm 12:52 Cloudy 74 23.3 53 11.7 48 48 ENE 8 13 30.27 1025 10 16.09344 0 0
1:52 pm 13:52 Cloudy 73 22.8 52 11.1 48 48 Calm 30.27 1025 10 16.09344 0 0
2:52 pm 14:52 Cloudy 74 23.3 54 12.2 50 50 NE 6 9 30.24 1024 10 16.09344 0 0
3:52 pm 15:52 Cloudy 73 22.8 53 11.7 50 50 ENE 10 17 30.21 1023 10 16.09344 0 0
4:52 pm 16:52 Cloudy 72 22.2 54 12.2 53 53 E 8 13 30.18 1022 10 16.09344 0 0
5:52 pm 17:52 Cloudy 71 21.7 52 11.1 51 51 E 7 11 30.18 1022 10 16.09344 0 0
6:52 pm 18:52 Cloudy 70 21.1 51 10.6 51 51 NE 7 11 30.15 1021 10 16.09344 0 0
7:52 pm 19:52 Cloudy 69 20.6 53 11.7 57 57 ENE 5 7 30.15 1021 10 16.09344 0 0
8:52 pm 20:52 Cloudy 69 20.6 55 12.8 61 61 NE 5 7 30.18 1022 10 16.09344 0 0
9:52 pm 21:52 Cloudy 68 20 55 12.8 63 63 ENE 6 9 30.15 1021 10 16.09344 0 0
10:52 pm 22:52 Cloudy 67 19.4 57 13.9 71 71 NE 6 9 30.15 1021 10 16.09344 0 0
11:52 pm 23:52 Cloudy 66 18.9 57 13.9 73 73 ENE 6 9 30.12 1020 10 16.09344 0 0

Powered by AerisWeather